GW0658 Weather Reports


Display with metric or nautical units.
time (UTC)temp
F
wind
direction
speed
MPH
gust
MPH
rain 1hr
in
rain 24hr
in
rain mn
in
humidity
%
barometer
mb
20260905042523 54 0 0.0 0.0 0.00 0.00 0.00 62 1017.4
20260905042020 54 0 0.0 0.0 0.00 0.00 0.00 62 1017.4
20260905041540 54 0 0.0 0.0 0.00 0.00 0.00 62 1017.3
20260905041019 53 0 0.0 0.0 0.00 0.00 0.00 62 1017.3
20260905040520 53 0 0.0 0.0 0.00 0.00 0.00 63 1017.3
20260905040049 53 0 0.0 0.0 0.00 0.00 0.00 62 1017.2
20260905035520 53 0 0.0 0.0 0.00 0.00 0.00 62 1017.3
20260905035019 53 0 0.0 0.0 0.00 0.00 0.00 63 1017.2
20260905034552 53 0 0.0 0.0 0.00 0.00 0.00 63 1017.2
20260905034021 53 0 0.0 0.0 0.00 0.00 0.00 63 1017.1
20260905033522 53 0 0.0 0.0 0.00 0.00 0.00 63 1017.1
20260905033041 53 0 0.0 0.0 0.00 0.00 0.00 63 1017.1
20260905032521 53 0 0.0 0.0 0.00 0.00 0.00 63 1016.9
20260905032020 53 0 0.0 0.0 0.00 0.00 0.00 63 1016.9
20260905031543 53 0 0.0 0.0 0.00 0.00 0.00 63 1016.9
20260905031020 53 0 0.0 0.0 0.00 0.00 0.00 62 1016.8
20260905030525 53 0 0.0 0.0 0.00 0.00 0.00 62 1016.8
20260905030055 54 0 0.0 0.0 0.00 0.00 0.00 62 1016.7
20260905025523 54 0 0.0 0.0 0.00 0.00 0.00 62 1016.7
20260905025027 54 0 0.0 0.0 0.00 0.00 0.00 61 1016.6
20260905024544 54 0 0.0 0.0 0.00 0.00 0.00 62 1016.6
20260905024023 54 0 0.0 0.0 0.00 0.00 0.00 62 1016.6
20260905023531 54 0 0.0 0.0 0.00 0.00 0.00 61 1016.6
20260905023042 54 0 0.0 0.0 0.00 0.00 0.00 61 1016.7
20260905022529 55 0 0.0 0.0 0.00 0.00 0.00 61 1016.7
20260905022026 55 0 0.0 0.0 0.00 0.00 0.00 60 1016.7
20260905021553 56 0 0.0 0.0 0.00 0.00 0.00 59 1016.7
20260905021024 56 0 0.0 0.0 0.00 0.00 0.00 59 1016.7
20260905020527 57 0 0.0 0.0 0.00 0.00 0.00 58 1016.7
20260905020052 57 0 0.0 2.0 0.00 0.00 0.00 56 1016.6
20260905015520 57 0 0.0 2.0 0.00 0.00 0.00 55 1016.7
20260905015023 58 0 0.0 5.0 0.00 0.00 0.00 54 1016.8
20260905014543 58 0 0.0 5.0 0.00 0.00 0.00 53 1016.8
20260905014026 59 229 3.0 5.0 0.00 0.00 0.00 52 1016.8
20260905013525 59 238 2.0 5.0 0.00 0.00 0.00 51 1016.6
20260905013042 60 209 2.0 6.0 0.00 0.00 0.00 51 1016.6
20260905012526 60 211 2.0 6.0 0.00 0.00 0.00 51 1016.6
20260905012023 60 221 2.0 6.0 0.00 0.00 0.00 51 1016.6
20260905011611 60 209 1.0 6.0 0.00 0.00 0.00 51 1016.6
20260905011023 60 212 3.0 7.0 0.00 0.00 0.00 50 1016.5
20260905010524 60 217 2.0 8.0 0.00 0.00 0.00 50 1016.6
20260905010046 60 191 4.0 9.0 0.00 0.00 0.00 50 1016.6
20260905005525 60 224 2.0 9.0 0.00 0.00 0.00 51 1016.6
20260905005022 60 215 4.0 8.0 0.00 0.00 0.00 50 1016.6
20260905004545 60 238 3.0 8.0 0.00 0.00 0.00 51 1016.5
20260905004020 60 231 3.0 8.0 0.00 0.00 0.00 50 1016.5
20260905003524 61 201 4.0 9.0 0.00 0.00 0.00 50 1016.5
20260905003054 61 226 5.0 9.0 0.00 0.00 0.00 50 1016.5
20260905002526 62 219 4.0 9.0 0.00 0.00 0.00 50 1016.5
20260905002027 62 244 4.0 9.0 0.00 0.00 0.00 49 1016.4
20260905001600 62 219 3.0 9.0 0.00 0.00 0.00 49 1016.4
20260905001022 63 220 5.0 9.0 0.00 0.00 0.00 49 1016.3
20260905000524 63 194 3.0 9.0 0.00 0.00 0.00 48 1016.3
20260905000043 63 52 3.0 9.0 0.00 0.00 0.00 47 1016.3
20260904235522 63 209 2.0 8.0 0.00 0.00 0.00 48 1016.5
20260904235023 63 197 4.0 8.0 0.00 0.00 0.00 47 1016.5
20260904234541 63 180 2.0 9.0 0.00 0.00 0.00 49 1016.5
20260904234024 63 211 4.0 9.0 0.00 0.00 0.00 48 1016.4
20260904233528 64 204 4.0 9.0 0.00 0.00 0.00 49 1016.5
20260904233103 64 211 3.0 9.0 0.00 0.00 0.00 49 1016.5
20260904232526 64 211 3.0 9.0 0.00 0.00 0.00 50 1016.4
20260904232023 63 209 4.0 13.0 0.00 0.00 0.00 50 1016.4
20260904231547 63 190 3.0 13.0 0.00 0.00 0.00 50 1016.3
20260904231023 62 207 3.0 10.0 0.00 0.00 0.00 52 1016.4
20260904230526 63 0 4.0 13.0 0.00 0.00 0.00 51 1016.5
20260904230045 64 22 4.0 13.0 0.00 0.00 0.00 50 1016.6
20260904225524 65 200 4.0 9.0 0.00 0.00 0.00 51 1016.5
20260904225025 64 210 4.0 9.0 0.00 0.00 0.00 52 1016.6
20260904224551 64 200 3.0 11.0 0.00 0.00 0.00 56 1016.5
20260904224024 64 187 4.0 11.0 0.00 0.00 0.00 57 1016.5
20260904223524 63 173 4.0 9.0 0.00 0.00 0.00 59 1016.4
20260904223047 63 155 3.0 9.0 0.00 0.00 0.00 60 1016.6
20260904222523 64 182 4.0 9.0 0.00 0.00 0.00 59 1016.5
20260904222024 65 197 4.0 14.0 0.00 0.00 0.00 60 1016.5
20260904221550 64 187 6.0 14.0 0.00 0.00 0.00 61 1016.4
20260904221026 63 216 4.0 12.0 0.00 0.00 0.00 64 1016.5
20260904220523 63 196 5.0 12.0 0.00 0.00 0.00 65 1016.6
20260904220059 63 179 4.0 10.0 0.00 0.00 0.00 67 1016.6
20260904215521 62 202 3.0 10.0 0.00 0.00 0.00 67 1016.6
20260904215021 62 189 4.0 13.0 0.00 0.00 0.00 69 1016.5
20260904214552 60 219 3.0 13.0 0.00 0.00 0.00 73 1016.5
20260904214025 60 0 2.0 10.0 0.00 0.00 0.00 74 1016.5
20260904213527 60 150 3.0 10.0 0.00 0.00 0.00 74 1016.5
20260904213052 60 159 3.0 9.0 0.00 0.00 0.00 75 1016.5
20260904212526 60 206 2.0 10.0 0.00 0.00 0.00 75 1016.6
20260904212023 60 219 1.0 10.0 0.00 0.00 0.00 77 1016.6
20260904211547 61 189 3.0 10.0 0.00 0.00 0.00 75 1016.6
20260904211023 61 309 2.0 8.0 0.00 0.00 0.00 74 1016.5
20260904210523 62 215 3.0 8.0 0.00 0.00 0.00 76 1016.5
20260904210055 61 201 5.0 9.0 0.00 0.00 0.00 78 1016.4
20260904205529 61 198 4.0 9.0 0.00 0.00 0.00 80 1016.5
20260904205027 60 220 3.0 9.0 0.00 0.00 0.00 80 1016.5
20260904204540 60 206 3.0 9.0 0.00 0.00 0.00 81 1016.5
20260904204022 60 200 4.0 9.0 0.00 0.00 0.00 81 1016.5
20260904203520 59 207 2.0 7.0 0.00 0.00 0.00 84 1016.4
20260904203044 59 10 3.0 6.0 0.00 0.00 0.00 85 1016.5
20260904202521 58 194 2.0 8.0 0.00 0.00 0.00 86 1016.5
20260904202021 58 201 2.0 8.0 0.00 0.00 0.00 88 1016.5
20260904201550 58 219 3.0 8.0 0.00 0.00 0.00 88 1016.5
20260904201025 57 205 2.0 6.0 0.00 0.00 0.00 90 1016.4
20260904200521 57 236 2.0 6.0 0.00 0.00 0.00 91 1016.5
20260904200044 57 0 1.0 4.0 0.00 0.00 0.00 92 1016.3
20260904195521 56 200 1.0 5.0 0.00 0.00 0.00 93 1016.5
20260904195020 56 112 2.0 6.0 0.00 0.00 0.00 94 1016.4
20260904194540 55 257 1.0 6.0 0.00 0.00 0.00 95 1016.5
20260904194026 55 203 1.0 4.0 0.00 0.00 0.00 96 1016.5
20260904193523 54 215 2.0 5.0 0.00 0.00 0.00 96 1016.5
20260904193042 54 187 1.0 6.0 0.00 0.00 0.00 96 1016.5
20260904192527 54 327 2.0 6.0 0.00 0.00 0.00 96 1016.6
20260904192025 54 206 1.0 4.0 0.00 0.00 0.00 96 1016.7
20260904191542 54 221 0.0 5.0 0.00 0.00 0.00 96 1016.6
20260904191025 53 9 1.0 5.0 0.00 0.00 0.00 96 1016.6
20260904190522 53 0 1.0 5.0 0.00 0.00 0.00 96 1016.6
20260904190041 53 0 1.0 5.0 0.00 0.00 0.00 96 1016.8
20260904185519 53 0 1.0 4.0 0.00 0.00 0.00 96 1016.8
20260904185019 53 274 1.0 4.0 0.00 0.00 0.00 96 1016.7
20260904184545 53 273 1.0 4.0 0.00 0.00 0.00 96 1016.7
20260904184026 52 0 0.0 2.0 0.00 0.00 0.00 96 1016.8
20260904183525 52 0 0.0 5.0 0.00 0.00 0.00 96 1016.8
20260904183041 52 0 0.0 5.0 0.00 0.00 0.00 96 1016.8
20260904182525 52 0 0.0 0.0 0.00 0.00 0.00 96 1016.8
20260904182030 52 0 0.0 0.0 0.00 0.00 0.00 96 1016.8
20260904181541 52 0 0.0 3.0 0.00 0.00 0.00 96 1016.6
20260904181025 52 0 0.0 4.0 0.00 0.00 0.00 96 1016.7
20260904180521 52 44 0.0 4.0 0.00 0.00 0.00 96 1016.6
20260904180058 52 0 1.0 3.0 0.00 0.00 0.00 96 1016.6
20260904175521 52 223 0.0 3.0 0.00 0.00 0.00 96 1016.6
20260904175021 52 213 1.0 3.0 0.00 0.00 0.00 96 1016.6
20260904174546 52 219 1.0 3.0 0.00 0.00 0.00 96 1016.6
20260904174019 52 49 0.0 2.0 0.00 0.00 0.00 96 1016.6
20260904173520 52 0 0.0 2.0 0.00 0.00 0.00 96 1016.6
20260904173112 52 0 0.0 0.0 0.00 0.00 0.00 96 1016.5
20260904172529 51 0 0.0 0.0 0.00 0.00 0.00 96 1016.4
20260904172022 51 0 0.0 3.0 0.00 0.00 0.00 96 1016.3
20260904171553 51 0 0.0 3.0 0.00 0.00 0.00 96 1016.2
20260904171022 51 198 1.0 3.0 0.00 0.00 0.00 95 1016.2
20260904170522 52 192 1.0 3.0 0.00 0.00 0.00 95 1016.1
20260904170046 52 0 1.0 3.0 0.00 0.00 0.00 95 1016.0
20260904165520 52 211 1.0 3.0 0.00 0.00 0.00 95 1016.0
20260904165020 52 0 0.0 2.0 0.00 0.00 0.00 96 1015.9
20260904164541 52 0 0.0 3.0 0.00 0.00 0.00 96 1015.8
20260904164024 52 0 0.0 3.0 0.00 0.00 0.00 96 1015.8
20260904163529 52 202 1.0 3.0 0.00 0.00 0.00 96 1015.7
20260904163048 52 180 0.0 3.0 0.00 0.00 0.00 96 1015.6
20260904162524 52 0 0.0 3.0 0.00 0.00 0.00 95 1015.5
20260904162022 52 208 1.0 3.0 0.00 0.00 0.00 95 1015.5
20260904161542 52 0 0.0 0.0 0.00 0.00 0.00 95 1015.4
20260904161022 52 0 0.0 2.0 0.00 0.00 0.00 95 1015.5
20260904160528 52 0 0.0 2.0 0.00 0.00 0.00 95 1015.5
20260904160042 52 0 0.0 0.0 0.00 0.00 0.00 95 1015.5
20260904155520 52 0 0.0 0.0 0.00 0.00 0.00 95 1015.5
20260904155025 52 0 0.0 0.0 0.00 0.00 0.00 95 1015.5
20260904154541 52 0 0.0 2.0 0.00 0.00 0.00 95 1015.5
20260904154024 52 0 0.0 2.0 0.00 0.00 0.00 95 1015.4
20260904153526 52 0 0.0 2.0 0.00 0.00 0.00 95 1015.5
20260904153056 52 0 0.0 2.0 0.00 0.00 0.00 95 1015.4
20260904152522 52 0 0.0 0.0 0.00 0.00 0.00 95 1015.5
20260904152023 52 0 0.0 0.0 0.00 0.00 0.00 95 1015.5
20260904151546 52 0 0.0 3.0 0.00 0.00 0.00 95 1015.5
20260904151021 52 0 0.0 3.0 0.00 0.00 0.00 95 1015.4
20260904150524 52 204 1.0 5.0 0.00 0.00 0.00 95 1015.4
20260904150049 52 0 0.0 5.0 0.00 0.00 0.00 95 1015.4
20260904145524 52 184 2.0 5.0 0.00 0.00 0.00 95 1015.3
20260904145024 52 0 0.0 2.0 0.00 0.00 0.00 95 1015.3
20260904144553 52 242 0.0 3.0 0.00 0.00 0.00 95 1015.2
20260904144023 52 0 0.0 3.0 0.00 0.00 0.00 95 1015.1
20260904143526 52 198 1.0 3.0 0.00 0.00 0.00 95 1015.1
20260904143047 52 0 0.0 3.0 0.00 0.00 0.00 95 1015.2
20260904142524 52 0 0.0 3.0 0.00 0.00 0.00 95 1015.0
20260904142023 52 0 0.0 3.0 0.00 0.00 0.00 95 1015.0
20260904141543 52 0 0.0 3.0 0.00 0.00 0.00 95 1015.0
20260904141022 52 198 1.0 3.0 0.00 0.00 0.00 95 1015.1
20260904140521 52 0 0.0 3.0 0.00 0.00 0.00 94 1014.9
20260904140053 52 198 1.0 3.0 0.00 0.00 0.00 95 1014.7
20260904135524 52 198 0.0 3.0 0.00 0.00 0.00 94 1014.7
20260904135024 52 159 0.0 3.0 0.00 0.00 0.00 94 1014.6
20260904134542 52 196 1.0 3.0 0.00 0.00 0.00 94 1014.7
20260904134024 52 190 0.0 3.0 0.00 0.00 0.00 94 1014.6
20260904133522 52 203 0.0 3.0 0.00 0.00 0.00 94 1014.6
20260904133045 52 0 0.0 2.0 0.00 0.00 0.00 94 1014.6
20260904132522 52 0 0.0 2.0 0.00 0.00 0.00 93 1014.6
20260904132021 52 0 0.0 2.0 0.00 0.00 0.00 94 1014.7
20260904131540 53 0 0.0 3.0 0.00 0.00 0.00 93 1014.5
20260904131028 53 0 0.0 3.0 0.00 0.00 0.00 93 1014.5
20260904130521 53 0 0.0 2.0 0.00 0.00 0.00 93 1014.5
20260904130041 53 158 0.0 2.0 0.00 0.00 0.00 93 1014.4
20260904125527 53 0 0.0 2.0 0.00 0.00 0.00 93 1014.4
20260904125024 53 276 0.0 2.0 0.00 0.00 0.00 93 1014.3
20260904124556 53 0 0.0 2.0 0.00 0.00 0.00 92 1014.3
20260904124023 53 302 0.0 2.0 0.00 0.00 0.00 93 1014.2
20260904123522 53 344 0.0 5.0 0.00 0.00 0.00 92 1014.2
20260904123043 53 0 1.0 5.0 0.00 0.00 0.00 92 1014.2
20260904122521 53 0 0.0 2.0 0.00 0.00 0.00 92 1014.2
20260904122021 53 0 0.0 2.0 0.00 0.00 0.00 92 1014.2
20260904121540 53 177 0.0 2.0 0.00 0.00 0.00 92 1014.2
20260904121024 53 0 0.0 2.0 0.00 0.00 0.00 91 1014.3
20260904120524 53 0 0.0 2.0 0.00 0.00 0.00 91 1014.2
20260904120046 53 177 0.0 2.0 0.00 0.00 0.00 91 1014.2
20260904115524 53 0 0.0 1.0 0.00 0.00 0.00 91 1014.1
20260904115028 53 0 0.0 2.0 0.00 0.00 0.00 91 1014.1
20260904114547 53 0 0.0 3.0 0.00 0.00 0.00 90 1014.1
20260904114022 53 0 0.0 3.0 0.00 0.00 0.00 91 1014.1
20260904113521 53 204 1.0 3.0 0.00 0.00 0.00 90 1014.1
20260904113048 53 0 0.0 2.0 0.00 0.00 0.00 90 1014.1
20260904112521 53 123 0.0 2.0 0.00 0.00 0.00 90 1013.9
20260904112025 53 0 0.0 2.0 0.00 0.00 0.00 90 1014.0
20260904111542 53 0 0.0 0.0 0.00 0.00 0.00 90 1013.9
20260904111019 53 0 0.0 0.0 0.00 0.00 0.00 90 1014.0
20260904110525 53 0 0.0 0.0 0.00 0.00 0.00 90 1013.9
20260904110135 53 0 0.0 0.0 0.00 0.00 0.00 90 1013.9
20260904105523 53 0 0.0 0.0 0.00 0.00 0.00 90 1013.9
20260904105022 53 0 0.0 0.0 0.00 0.00 0.00 90 1013.9
20260904104547 53 0 0.0 0.0 0.00 0.00 0.00 90 1013.9
20260904104021 53 0 0.0 0.0 0.00 0.00 0.00 90 1014.0
20260904103524 53 0 0.0 0.0 0.00 0.00 0.00 91 1014.0
20260904103043 53 0 0.0 0.0 0.00 0.00 0.00 91 1014.0
20260904102519 53 0 0.0 0.0 0.00 0.00 0.00 91 1014.0
20260904102019 53 0 0.0 0.0 0.00 0.00 0.00 91 1013.9
20260904101540 53 0 0.0 0.0 0.00 0.00 0.00 91 1014.0
20260904101023 53 0 0.0 0.0 0.00 0.00 0.00 91 1013.9
20260904100528 53 0 0.0 0.0 0.00 0.00 0.00 91 1013.9
20260904100046 53 0 0.0 0.0 0.00 0.00 0.00 91 1014.0
20260904095524 53 0 0.0 0.0 0.00 0.00 0.00 90 1014.0
20260904095022 53 0 0.0 0.0 0.00 0.00 0.00 91 1014.0
20260904094549 53 0 0.0 0.0 0.00 0.00 0.00 91 1014.0
20260904094021 54 0 0.0 0.0 0.00 0.00 0.00 91 1013.9
20260904093521 54 0 0.0 0.0 0.00 0.00 0.00 91 1014.0
20260904093040 54 0 0.0 0.0 0.00 0.00 0.00 91 1014.0
20260904092520 54 0 0.0 0.0 0.00 0.00 0.00 91 1014.0
20260904092019 54 0 0.0 0.0 0.00 0.00 0.00 91 1014.0
20260904091540 53 0 0.0 0.0 0.00 0.00 0.00 91 1014.1
20260904091023 53 0 0.0 0.0 0.00 0.00 0.00 91 1014.1
20260904090522 53 0 0.0 0.0 0.00 0.00 0.00 91 1014.1
20260904090046 53 0 0.0 0.0 0.00 0.00 0.00 91 1014.2
20260904085521 53 0 0.0 0.0 0.00 0.00 0.00 90 1014.1
20260904085026 53 0 0.0 0.0 0.00 0.00 0.00 91 1014.2
20260904084543 53 0 0.0 0.0 0.00 0.00 0.00 91 1014.3
20260904084023 53 0 0.0 0.0 0.00 0.00 0.00 91 1014.2
20260904083520 53 0 0.0 0.0 0.00 0.00 0.00 91 1014.2
20260904083040 53 0 0.0 0.0 0.00 0.00 0.00 91 1014.2
20260904082524 54 0 0.0 0.0 0.00 0.00 0.00 91 1014.2
20260904082023 53 0 0.0 0.0 0.00 0.00 0.00 91 1014.2
20260904081606 53 0 0.0 0.0 0.00 0.00 0.00 91 1014.2
20260904081023 53 0 0.0 0.0 0.00 0.00 0.00 91 1014.2
20260904080521 53 0 0.0 0.0 0.00 0.00 0.00 92 1014.3
20260904080043 53 0 0.0 0.0 0.00 0.00 0.00 92 1014.3
20260904075520 53 0 0.0 0.0 0.00 0.00 0.00 91 1014.3
20260904075019 53 0 0.0 0.0 0.00 0.00 0.00 92 1014.3
20260904074601 53 0 0.0 0.0 0.00 0.00 0.00 92 1014.4
20260904074019 53 0 0.0 1.0 0.00 0.00 0.00 92 1014.4
20260904073520 53 0 0.0 1.0 0.00 0.00 0.00 92 1014.4
20260904073059 53 226 0.0 3.0 0.00 0.00 0.00 92 1014.4
20260904072523 53 226 0.0 3.0 0.00 0.00 0.00 92 1014.4
20260904072022 53 226 1.0 5.0 0.00 0.00 0.00 92 1014.4
20260904071547 53 234 1.0 5.0 0.00 0.00 0.00 91 1014.4
20260904071025 53 227 2.0 5.0 0.00 0.00 0.00 90 1014.4
20260904070526 54 225 2.0 4.0 0.00 0.00 0.00 89 1014.4
20260904070051 54 230 1.0 3.0 0.00 0.00 0.00 88 1014.3
20260904065519 54 0 0.0 0.0 0.00 0.00 0.00 87 1014.3
20260904065021 55 0 0.0 0.0 0.00 0.00 0.00 86 1014.2
20260904064542 54 0 0.0 0.0 0.00 0.00 0.00 85 1014.2
20260904064020 54 0 0.0 0.0 0.00 0.00 0.00 86 1014.0
20260904063519 54 0 0.0 0.0 0.00 0.00 0.00 86 1014.0
20260904063040 54 0 0.0 0.0 0.00 0.00 0.00 87 1014.0
20260904062523 54 0 0.0 0.0 0.00 0.00 0.00 88 1014.2
20260904062021 54 0 0.0 0.0 0.00 0.00 0.00 88 1014.1
20260904061542 54 0 0.0 0.0 0.00 0.00 0.00 88 1014.1
20260904061024 54 0 0.0 0.0 0.00 0.00 0.00 89 1014.2
20260904060521 54 0 0.0 0.0 0.00 0.00 0.00 89 1014.2
20260904060041 54 0 0.0 0.0 0.00 0.00 0.00 89 1014.2
20260904055519 54 0 0.0 0.0 0.00 0.00 0.00 88 1014.3
20260904055021 54 0 0.0 0.0 0.00 0.00 0.00 88 1014.4
20260904054540 55 0 0.0 0.0 0.00 0.00 0.00 88 1014.4
20260904054023 55 0 0.0 0.0 0.00 0.00 0.00 88 1014.5
20260904053522 55 0 0.0 0.0 0.00 0.00 0.00 87 1014.6
20260904053046 55 0 0.0 0.0 0.00 0.00 0.00 87 1014.6
20260904052523 55 0 0.0 0.0 0.00 0.00 0.00 87 1014.7
20260904052022 55 0 0.0 0.0 0.00 0.00 0.00 86 1014.7
20260904051542 55 0 0.0 0.0 0.00 0.00 0.00 86 1014.8
20260904051021 55 0 0.0 0.0 0.00 0.00 0.00 86 1014.8
20260904050522 55 0 0.0 0.0 0.00 0.00 0.00 86 1014.9
20260904050052 55 0 0.0 0.0 0.00 0.00 0.00 86 1014.9
20260904045524 55 0 0.0 0.0 0.00 0.00 0.00 86 1015.0
20260904045027 55 0 0.0 0.0 0.00 0.00 0.00 86 1014.9
20260904044549 55 0 0.0 0.0 0.00 0.00 0.00 86 1014.9
20260904044029 55 0 0.0 0.0 0.00 0.00 0.00 85 1015.0
20260904043525 55 0 0.0 0.0 0.00 0.00 0.00 85 1015.1
20260904043054 55 0 0.0 0.0 0.00 0.00 0.00 85 1015.1